Regional Weather Roundup
Issued by NWS Sioux Falls, SD

Home | Current Version | Previous Version | Text Only | Print | Product List | Glossary On
Versions: 1 2 3 4 5 6 7 8 9 10 11 12 13 14 15 16 17 18 19 20 21 22 23 24 25 26 27 28 29 30 31 32 33 34 35 36 37 38 39 40 41 42 43 44 45 46 47 48 49 50
000
ASUS43 KFSD 151602
RWRFSD

WEATHER ROUNDUP FOR SE SOUTH DAKOTA/SW MINNESOTA/NW IOWA
NATIONAL WEATHER SERVICE SIOUX FALLS SD
1000 AM CST FRI DEC 15 2017

NOTE: "FAIR" INDICATES FEW OR NO CLOUDS BELOW 12,000 FEET WITH NO
SIGNIFICANT WEATHER AND OR OBSTRUCTIONS TO VISIBILITY.


SDZ038>040-050-052>070-151700-
SOUTHEAST SOUTH DAKOTA

CITY           SKY/WX    TMP DP  RH WIND       PRES   REMARKS
BROOKINGS      CLOUDY    30  27  88 W9        29.84F WCI  22
CHAMBERLAIN    CLOUDY    31  27  86 SW3       29.88R
HURON          CLOUDY    33  26  75 SW8       29.86R WCI  26
MADISON        FAIR      28  28 100 W10       29.85F WCI  19
MITCHELL       MOSUNNY   32  24  72 SW10      29.88F WCI  24
SIOUX FALLS    MOSUNNY   34  26  72 W7        29.88F WCI  28
WINNER         FAIR      33  24  69 SW10      29.88R WCI  25
YANKTON        CLOUDY    34  24  67 SW10      29.91F WCI  26
$$

MNZ071-072-080-081-089-090-097-098-151700-
SOUTHWEST MINNESOTA

CITY           SKY/WX    TMP DP  RH WIND       PRES   REMARKS
FAIRMONT       FLURRIES  32  28  85 W10       29.90R WCI  24
JACKSON        CLOUDY    32  28  86 MISG      29.88S
LUVERNE        CLOUDY    32  27  80 W13       29.88F WCI  22
MARSHALL       CLOUDY    33  28  81 W7        29.87F WCI  27
MONTEVIDEO     CLOUDY    27  27 100 SE3       29.86F
PIPESTONE      MOSUNNY   30  27  86 W13       29.84F WCI  20
REDWOOD FALLS  LGT SNOW  32  30  92 W5        29.87S FOG     WCI  27
WINDOM           N/A     32  19  59 W9        29.88R WCI  24
WORTHINGTON    CLOUDY    32  28  85 W14       29.88S WCI  22
$$

IAZ001>003-012>014-020>022-031-032-NEZ013-014-SDZ071-151700-
NORTHWEST IOWA

CITY           SKY/WX    TMP DP  RH WIND       PRES   REMARKS
CHEROKEE       CLOUDY    35  27  74 W15       29.93S WCI  25
DENISON        CLOUDY    36  27  69 MISG      29.99S
ESTHERVILLE    PTSUNNY   32  28  85 W13       29.89S WCI  22
LE MARS        PTSUNNY   36  27  69 SW7       29.94S
ORANGE CITY    CLOUDY    36  28  75 W14       29.91S
SHELDON        PTSUNNY   34  28  80 W14       29.88F WCI  24
SIOUX CITY     CLOUDY    36  25  64 W8        29.97S
SPENCER        CLOUDY    33  28  81 W13       29.90S WCI  24
STORM LAKE     MOSUNNY   34  27  75 W14G21    29.92S WCI  24
$$

ABBREVIATIONS USED IN REMARKS
   TC - TEMPERATURE IN CELSIUS
  WCI - WIND CHILL INDEX
   HX - HEAT INDEX
  VSB - VISIBILITY





USA.gov is the U.S. government's official web portal to all federal, state and local government web resources and services.